Location: Huppendorf
(49.9333°N, 11.1500°E)
Time: 03:51:34
(UTC+00:00)

CZ-2C R/B - Pass Details

Date: 27 February 2020
Orbit: 703 x 909 km, 98.1° (Epoch: 29 March)

Event Time Altitude Azimuth Distance (km) Brightness Sun altitude
Rises 17:38:21 0° 129° (SE) 3,523 6.0 -8.0°
Reaches altitude 10° 17:41:04 10° 119° (ESE) 2,574 5.2 -8.4°
Maximum altitude 17:45:55 29° 62° (ENE) 1,563 4.1 -9.2°
Drops below altitude 10° 17:50:39 10° 4° (N) 2,507 5.6 -10.0°
Sets 17:53:15 0° 354° (N) 3,417 6.4 -10.4°
